UKV6669 NFFN-NSFA

Flight info

Callsign UKV6669
Flight time 1h 41m
Altitude 39000
Route DELTA VK DCT GODAP R453 UVUTI UVUTI2C
Aircraft A319/M-SDE1FGHIRWXY/LB1

Departure

Time 2026-05-04 20:06
Airport Nadi International Airport (NFFN)

Arrival

Time 2026-05-04 21:47
Airport Faleolo International Airport (NSFA)
Time Latitude Longitude Altitude Speed Heading
2026-05-04 19:52 -17.75342 177.44982 52 ft 0 kts 103°
2026-05-04 19:59 -17.75339 177.44970 53 ft 3 kts 103°
2026-05-04 20:00 -17.75335 177.44951 53 ft 3 kts 103°
2026-05-04 20:00 -17.75331 177.44933 47 ft 3 kts 57°
2026-05-04 20:00 -17.75339 177.44924 50 ft 0 kts
2026-05-04 20:03 -17.75324 177.44924 49 ft 4 kts 352°
2026-05-04 20:03 -17.75282 177.44917 53 ft 8 kts 352°
2026-05-04 20:04 -17.75217 177.44929 54 ft 11 kts 14°
2026-05-04 20:04 -17.75160 177.44886 54 ft 12 kts 291°
2026-05-04 20:04 -17.75136 177.44790 54 ft 15 kts 284°
2026-05-04 20:04 -17.75114 177.44673 53 ft 17 kts 257°
2026-05-04 20:05 -17.75157 177.44621 51 ft 0 kts 215°
2026-05-04 20:05 -17.75188 177.44597 51 ft 25 kts 217°
2026-05-04 20:05 -17.75516 177.44330 49 ft 91 kts 217°
2026-05-04 20:06 -17.76183 177.43801 57 ft 147 kts 214°
2026-05-04 20:06 -17.76991 177.43135 650 ft 145 kts 217°
2026-05-04 20:06 -17.77778 177.42486 1296 ft 143 kts 215°
2026-05-04 20:06 -17.78566 177.41840 1839 ft 148 kts 213°
2026-05-04 20:07 -17.79425 177.41143 2197 ft 169 kts 213°
2026-05-04 20:07 -17.80414 177.40336 2580 ft 192 kts 215°
2026-05-04 20:07 -17.81238 177.39134 2890 ft 221 kts 254°
2026-05-04 20:07 -17.81055 177.37532 3474 ft 229 kts 298°
2026-05-04 20:08 -17.79877 177.36356 3864 ft 250 kts 338°
2026-05-04 20:08 -17.78103 177.36131 4482 ft 267 kts
2026-05-04 20:08 -17.76254 177.36517 4898 ft 273 kts 17°
2026-05-04 20:08 -17.74427 177.37102 5474 ft 276 kts 19°
2026-05-04 20:09 -17.72588 177.37712 6498 ft 279 kts 17°
2026-05-04 20:09 -17.70700 177.38286 7394 ft 286 kts 15°
2026-05-04 20:09 -17.68766 177.38840 8312 ft 291 kts 18°
2026-05-04 20:09 -17.66948 177.39820 9212 ft 298 kts 36°
2026-05-04 20:10 -17.65464 177.41356 10068 ft 305 kts 53°
2026-05-04 20:10 -17.64456 177.43400 10407 ft 329 kts 73°
2026-05-04 20:10 -17.63840 177.45788 10813 ft 347 kts 76°
2026-05-04 20:10 -17.63220 177.48269 11463 ft 355 kts 76°
2026-05-04 20:11 -17.62584 177.50797 12171 ft 362 kts 76°
2026-05-04 20:11 -17.61931 177.53368 12869 ft 368 kts 76°
2026-05-04 20:11 -17.61258 177.55979 13574 ft 374 kts 75°
2026-05-04 20:11 -17.60569 177.58630 14216 ft 380 kts 75°
2026-05-04 20:12 -17.59871 177.61317 14842 ft 384 kts 75°
2026-05-04 20:12 -17.59166 177.64035 15483 ft 388 kts 75°
2026-05-04 20:12 -17.58453 177.66779 16129 ft 392 kts 75°
2026-05-04 20:12 -17.57978 177.68611 16544 ft 395 kts 75°
2026-05-04 20:13 -17.57256 177.71408 17195 ft 399 kts 75°
2026-05-04 20:13 -17.56529 177.74231 17839 ft 404 kts 75°
2026-05-04 20:13 -17.55794 177.77086 18445 ft 408 kts 75°
2026-05-04 20:13 -17.55050 177.79972 18992 ft 413 kts 75°
2026-05-04 20:14 -17.54294 177.82891 19532 ft 418 kts 75°
2026-05-04 20:14 -17.53527 177.85844 20059 ft 423 kts 75°
2026-05-04 20:14 -17.52750 177.88833 20596 ft 427 kts 75°
2026-05-04 20:14 -17.51964 177.91853 21098 ft 432 kts 75°
2026-05-04 20:15 -17.51167 177.94912 21624 ft 437 kts 76°
2026-05-04 20:15 -17.50361 177.97998 22132 ft 442 kts 76°
2026-05-04 20:15 -17.49545 178.01118 22609 ft 447 kts 76°
2026-05-04 20:15 -17.48722 178.04272 23127 ft 451 kts 76°
2026-05-04 20:16 -17.47894 178.07454 23598 ft 455 kts 76°
2026-05-04 20:16 -17.47057 178.10667 23990 ft 459 kts 75°
2026-05-04 20:16 -17.46214 178.13899 24384 ft 462 kts 75°
2026-05-04 20:16 -17.45362 178.17161 24762 ft 466 kts 75°
2026-05-04 20:17 -17.44504 178.20443 25175 ft 469 kts 75°
2026-05-04 20:17 -17.43640 178.23751 25567 ft 473 kts 75°
2026-05-04 20:17 -17.42770 178.27079 25952 ft 476 kts 75°
2026-05-04 20:17 -17.41889 178.30438 26333 ft 480 kts 75°
2026-05-04 20:18 -17.41003 178.33815 26701 ft 483 kts 75°
2026-05-04 20:18 -17.40110 178.37219 27062 ft 486 kts 75°
2026-05-04 20:18 -17.39209 178.40643 27423 ft 490 kts 75°
2026-05-04 20:18 -17.38302 178.44091 27754 ft 493 kts 76°
2026-05-04 20:19 -17.37388 178.47561 28123 ft 496 kts 75°
2026-05-04 20:19 -17.36467 178.51056 28461 ft 500 kts 75°
2026-05-04 20:19 -17.35541 178.54574 28808 ft 503 kts 75°
2026-05-04 20:19 -17.34607 178.58116 29157 ft 507 kts 75°
2026-05-04 20:20 -17.33668 178.61678 29501 ft 510 kts 75°
2026-05-04 20:20 -17.32719 178.65268 29835 ft 513 kts 75°
2026-05-04 20:20 -17.31764 178.68880 30149 ft 516 kts 75°
2026-05-04 20:20 -17.30817 178.72456 30415 ft 519 kts 75°
2026-05-04 20:21 -17.29852 178.76104 30697 ft 521 kts 75°
2026-05-04 20:21 -17.28885 178.79763 30974 ft 523 kts 75°
2026-05-04 20:21 -17.26935 178.87130 31547 ft 527 kts 75°
2026-05-04 20:22 -17.25953 178.90831 31832 ft 529 kts 75°
2026-05-04 20:22 -17.24966 178.94536 32227 ft 528 kts 75°
2026-05-04 20:22 -17.23981 178.98236 32623 ft 528 kts 75°
2026-05-04 20:22 -17.22996 179.01932 33024 ft 527 kts 75°
2026-05-04 20:23 -17.22014 179.05619 33447 ft 526 kts 75°
2026-05-04 20:23 -17.21003 179.09293 33865 ft 526 kts 74°
2026-05-04 20:23 -17.19867 179.12930 34246 ft 525 kts 71°
2026-05-04 20:23 -17.18616 179.16511 34626 ft 525 kts 69°
2026-05-04 20:24 -17.17293 179.20060 35005 ft 524 kts 68°
2026-05-04 20:24 -17.15946 179.23598 35387 ft 522 kts 68°
2026-05-04 20:24 -17.14618 179.27126 35801 ft 520 kts 68°
2026-05-04 20:24 -17.13327 179.30655 36199 ft 519 kts 68°
2026-05-04 20:25 -17.12072 179.34177 36572 ft 518 kts 68°
2026-05-04 20:25 -17.10833 179.37713 36942 ft 517 kts 69°
2026-05-04 20:25 -17.09605 179.41240 37289 ft 516 kts 69°
2026-05-04 20:25 -17.08377 179.44760 37635 ft 515 kts 68°
2026-05-04 20:26 -17.07144 179.48271 37979 ft 514 kts 68°
2026-05-04 20:26 -17.05906 179.51768 38327 ft 513 kts 68°
2026-05-04 20:26 -17.04660 179.55262 38595 ft 512 kts 67°
2026-05-04 20:26 -17.03414 179.58745 38851 ft 512 kts 67°
2026-05-04 20:27 -17.00925 179.65696 38964 ft 510 kts 67°
2026-05-04 20:27 -16.98452 179.72628 38963 ft 509 kts 67°
2026-05-04 20:28 -16.95978 179.79555 38964 ft 509 kts 67°
2026-05-04 20:28 -16.93504 179.86480 38965 ft 509 kts 67°
2026-05-04 20:29 -16.91026 179.93400 38968 ft 509 kts 67°
2026-05-04 20:29 -16.88559 -179.99734 38982 ft 508 kts 67°
2026-05-04 20:30 -16.86078 -179.92828 38953 ft 508 kts 66°
2026-05-04 20:30 -16.83598 -179.85925 38959 ft 508 kts 66°
2026-05-04 20:31 -16.81115 -179.79025 38961 ft 508 kts 66°
2026-05-04 20:31 -16.78635 -179.72130 38964 ft 507 kts 66°
2026-05-04 20:32 -16.76150 -179.65233 38956 ft 507 kts 66°
2026-05-04 20:32 -16.73660 -179.58344 38959 ft 507 kts 66°
2026-05-04 20:33 -16.71171 -179.51458 38958 ft 507 kts 66°
2026-05-04 20:33 -16.68677 -179.44583 38930 ft 507 kts 66°
2026-05-04 20:34 -16.66181 -179.37707 38944 ft 507 kts 66°
2026-05-04 20:34 -16.63693 -179.30827 38954 ft 507 kts 66°
2026-05-04 20:35 -16.61206 -179.23954 38955 ft 507 kts 66°
2026-05-04 20:35 -16.58710 -179.17094 38961 ft 506 kts 65°
2026-05-04 20:36 -16.56204 -179.10238 38956 ft 506 kts 65°
2026-05-04 20:36 -16.53707 -179.03381 38956 ft 506 kts 65°
2026-05-04 20:37 -16.51206 -178.96530 38958 ft 505 kts 65°
2026-05-04 20:37 -16.48708 -178.89690 38967 ft 506 kts 65°
2026-05-04 20:38 -16.46201 -178.82843 38958 ft 505 kts 65°
2026-05-04 20:38 -16.43720 -178.76055 38958 ft 505 kts 65°
2026-05-04 20:39 -16.41221 -178.69233 38951 ft 504 kts 65°
2026-05-04 20:39 -16.38719 -178.62418 38950 ft 504 kts 65°
2026-05-04 20:40 -16.36215 -178.55610 38947 ft 504 kts 64°
2026-05-04 20:40 -16.33705 -178.48796 38921 ft 504 kts 65°
2026-05-04 20:41 -16.31200 -178.41988 38933 ft 503 kts 65°
2026-05-04 20:41 -16.28692 -178.35186 38943 ft 503 kts 65°
2026-05-04 20:42 -16.26189 -178.28400 38946 ft 502 kts 65°
2026-05-04 20:42 -16.23690 -178.21623 38946 ft 502 kts 65°
2026-05-04 20:43 -16.21198 -178.14843 38945 ft 502 kts 65°
2026-05-04 20:43 -16.18696 -178.08072 38942 ft 501 kts 64°
2026-05-04 20:44 -16.16194 -178.01306 38944 ft 501 kts 64°
2026-05-04 20:44 -16.13702 -177.94548 38945 ft 500 kts 64°
2026-05-04 20:45 -16.11211 -177.87794 38945 ft 500 kts 64°
2026-05-04 20:45 -16.08714 -177.81050 38945 ft 500 kts 64°
2026-05-04 20:46 -16.06206 -177.74308 38946 ft 500 kts 64°
2026-05-04 20:46 -16.03701 -177.67575 38932 ft 499 kts 64°
2026-05-04 20:47 -16.01201 -177.60845 38938 ft 499 kts 64°
2026-05-04 20:47 -15.98701 -177.54118 38942 ft 498 kts 64°
2026-05-04 20:48 -15.96199 -177.47402 38920 ft 498 kts 64°
2026-05-04 20:48 -15.93698 -177.40680 38924 ft 499 kts 64°
2026-05-04 20:49 -15.91184 -177.33961 38928 ft 499 kts 64°
2026-05-04 20:49 -15.88667 -177.27237 38926 ft 499 kts 64°
2026-05-04 20:50 -15.86156 -177.20515 38928 ft 499 kts 64°
2026-05-04 20:50 -15.83642 -177.13809 38933 ft 498 kts 64°
2026-05-04 20:51 -15.81124 -177.07100 38938 ft 499 kts 64°
2026-05-04 20:51 -15.78613 -177.00398 38933 ft 498 kts 64°
2026-05-04 20:52 -15.76101 -176.93703 38915 ft 497 kts 64°
2026-05-04 20:52 -15.73585 -176.87017 38928 ft 497 kts 64°
2026-05-04 20:53 -15.71072 -176.80343 38929 ft 496 kts 64°
2026-05-04 20:53 -15.68577 -176.73724 38933 ft 496 kts 64°
2026-05-04 20:54 -15.66065 -176.67060 38932 ft 496 kts 64°
2026-05-04 20:54 -15.63551 -176.60398 38933 ft 496 kts 63°
2026-05-04 20:55 -15.61034 -176.53745 38910 ft 495 kts 64°
2026-05-04 20:55 -15.58518 -176.47104 38938 ft 493 kts 64°
2026-05-04 20:56 -15.56010 -176.40490 38949 ft 492 kts 64°
2026-05-04 20:56 -15.53509 -176.33886 38950 ft 492 kts 64°
2026-05-04 20:57 -15.51002 -176.27286 38949 ft 492 kts 64°
2026-05-04 20:57 -15.48488 -176.20692 38949 ft 492 kts 64°
2026-05-04 20:58 -15.45981 -176.14105 38945 ft 491 kts 63°
2026-05-04 20:58 -15.43489 -176.07525 38950 ft 490 kts 63°
2026-05-04 20:59 -15.41418 -176.02073 38950 ft 489 kts 63°
2026-05-04 20:59 -15.38919 -175.95527 38949 ft 488 kts 63°
2026-05-04 21:00 -15.36416 -175.88992 38946 ft 488 kts 63°
2026-05-04 21:00 -15.33919 -175.82461 38948 ft 488 kts 63°
2026-05-04 21:01 -15.31418 -175.75934 38947 ft 488 kts 63°
2026-05-04 21:01 -15.28909 -175.69405 38945 ft 487 kts 63°
2026-05-04 21:02 -15.26406 -175.62884 38944 ft 488 kts 63°
2026-05-04 21:02 -15.23907 -175.56357 38928 ft 488 kts 63°
2026-05-04 21:03 -15.21406 -175.49834 38943 ft 487 kts 63°
2026-05-04 21:03 -15.18898 -175.43320 38947 ft 487 kts 63°
2026-05-04 21:04 -15.16384 -175.36820 38953 ft 486 kts 63°
2026-05-04 21:04 -15.13881 -175.30327 38955 ft 485 kts 63°
2026-05-04 21:05 -15.11377 -175.23842 38952 ft 485 kts 63°
2026-05-04 21:05 -15.08880 -175.17366 38951 ft 484 kts 63°
2026-05-04 21:06 -15.06375 -175.10898 38953 ft 484 kts 63°
2026-05-04 21:06 -15.03863 -175.04440 38955 ft 484 kts 63°
2026-05-04 21:07 -15.01354 -174.97985 38957 ft 483 kts 64°
2026-05-04 21:07 -14.98859 -174.91534 38954 ft 483 kts 64°
2026-05-04 21:08 -14.96381 -174.85135 38949 ft 482 kts 64°
2026-05-04 21:08 -14.93880 -174.78705 38949 ft 482 kts 64°
2026-05-04 21:09 -14.91375 -174.72279 38949 ft 482 kts 64°
2026-05-04 21:09 -14.88867 -174.65857 38944 ft 482 kts 64°
2026-05-04 21:10 -14.86373 -174.59442 38948 ft 481 kts 65°
2026-05-04 21:10 -14.83878 -174.53027 38930 ft 481 kts 65°
2026-05-04 21:11 -14.81365 -174.46613 38929 ft 482 kts 65°
2026-05-04 21:11 -14.78851 -174.40193 38928 ft 482 kts 65°
2026-05-04 21:12 -14.76341 -174.33770 38927 ft 482 kts 65°
2026-05-04 21:12 -14.73826 -174.27355 38917 ft 482 kts 65°
2026-05-04 21:13 -14.71313 -174.20946 38940 ft 481 kts 65°
2026-05-04 21:13 -14.68803 -174.14546 38945 ft 480 kts 65°
2026-05-04 21:14 -14.66290 -174.08162 38947 ft 480 kts 65°
2026-05-04 21:14 -14.63775 -174.01779 38947 ft 480 kts 65°
2026-05-04 21:15 -14.61260 -173.95398 38952 ft 480 kts 65°
2026-05-04 21:15 -14.58749 -173.89017 38937 ft 479 kts 65°
2026-05-04 21:16 -14.56256 -173.82690 38949 ft 479 kts 65°
2026-05-04 21:16 -14.53744 -173.76334 38951 ft 478 kts 65°
2026-05-04 21:17 -14.51231 -173.69986 38947 ft 477 kts 65°
2026-05-04 21:17 -14.49977 -173.66814 38820 ft 477 kts 65°
2026-05-04 21:17 -14.48721 -173.63645 38510 ft 477 kts 65°
2026-05-04 21:18 -14.47470 -173.60481 38068 ft 477 kts 65°
2026-05-04 21:18 -14.46221 -173.57310 37516 ft 477 kts 65°
2026-05-04 21:18 -14.44970 -173.54141 36980 ft 477 kts 65°
2026-05-04 21:18 -14.43718 -173.50979 36452 ft 476 kts 65°
2026-05-04 21:19 -14.42465 -173.47825 35936 ft 475 kts 65°
2026-05-04 21:19 -14.41209 -173.44673 35438 ft 475 kts 65°
2026-05-04 21:19 -14.39952 -173.41525 34949 ft 475 kts 65°
2026-05-04 21:19 -14.38697 -173.38373 34469 ft 476 kts 65°
2026-05-04 21:20 -14.37441 -173.35207 33993 ft 477 kts 65°
2026-05-04 21:20 -14.36186 -173.32041 33463 ft 478 kts 65°
2026-05-04 21:20 -14.34927 -173.28868 32933 ft 478 kts 65°
2026-05-04 21:20 -14.33673 -173.25709 32416 ft 475 kts 65°
2026-05-04 21:21 -14.32427 -173.22568 31912 ft 472 kts 65°
2026-05-04 21:21 -14.31188 -173.19450 31413 ft 468 kts 65°
2026-05-04 21:21 -14.29956 -173.16357 30923 ft 465 kts 65°
2026-05-04 21:21 -14.28735 -173.13288 30440 ft 461 kts 65°
2026-05-04 21:22 -14.27520 -173.10240 29957 ft 458 kts 65°
2026-05-04 21:22 -14.26315 -173.07220 29401 ft 454 kts 65°
2026-05-04 21:22 -14.25117 -173.04222 28854 ft 450 kts 65°
2026-05-04 21:22 -14.23930 -173.01253 28318 ft 446 kts 65°
2026-05-04 21:23 -14.22767 -172.98343 27796 ft 443 kts 65°
2026-05-04 21:23 -14.21584 -172.95385 27274 ft 439 kts 65°
2026-05-04 21:23 -14.20440 -172.92523 26774 ft 436 kts 65°
2026-05-04 21:23 -14.19291 -172.89649 26277 ft 433 kts 65°
2026-05-04 21:24 -14.18148 -172.86791 25791 ft 429 kts 65°
2026-05-04 21:24 -14.17018 -172.83958 25311 ft 426 kts 65°
2026-05-04 21:24 -14.15893 -172.81140 24837 ft 424 kts 65°
2026-05-04 21:24 -14.14776 -172.78344 24372 ft 421 kts 65°
2026-05-04 21:25 -14.13664 -172.75567 23909 ft 418 kts 64°
2026-05-04 21:25 -14.12558 -172.72808 23449 ft 415 kts 64°
2026-05-04 21:25 -14.11458 -172.70072 22904 ft 412 kts 64°
2026-05-04 21:25 -14.10363 -172.67352 22363 ft 409 kts 64°
2026-05-04 21:26 -14.09280 -172.64660 21841 ft 405 kts 64°
2026-05-04 21:26 -14.08210 -172.61990 21327 ft 402 kts 64°
2026-05-04 21:26 -14.07148 -172.59340 20820 ft 399 kts 64°
2026-05-04 21:26 -14.06091 -172.56713 20323 ft 396 kts 64°
2026-05-04 21:27 -14.05042 -172.54105 19836 ft 393 kts 64°
2026-05-04 21:27 -14.04002 -172.51517 19353 ft 390 kts 64°
2026-05-04 21:27 -14.03146 -172.48865 18877 ft 391 kts 73°
2026-05-04 21:27 -14.02693 -172.46107 18411 ft 392 kts 82°
2026-05-04 21:28 -14.02655 -172.43304 17903 ft 392 kts 91°
2026-05-04 21:28 -14.02990 -172.40530 17376 ft 390 kts 96°
2026-05-04 21:28 -14.03386 -172.37774 16852 ft 387 kts 96°
2026-05-04 21:28 -14.03775 -172.35038 16334 ft 384 kts 96°
2026-05-04 21:29 -14.04155 -172.32324 15831 ft 381 kts 96°
2026-05-04 21:29 -14.04528 -172.29637 15334 ft 378 kts 96°
2026-05-04 21:29 -14.04898 -172.26972 14845 ft 375 kts 96°
2026-05-04 21:29 -14.05265 -172.24325 14359 ft 372 kts 96°
2026-05-04 21:30 -14.05630 -172.21702 13880 ft 369 kts 96°
2026-05-04 21:30 -14.05996 -172.19092 13371 ft 368 kts 96°
2026-05-04 21:30 -14.06363 -172.16482 12837 ft 369 kts 96°
2026-05-04 21:30 -14.06729 -172.13881 12311 ft 364 kts 96°
2026-05-04 21:31 -14.07439 -172.08771 11300 ft 356 kts 97°
2026-05-04 21:31 -14.07787 -172.06259 10804 ft 353 kts 97°
2026-05-04 21:31 -14.08131 -172.03770 10317 ft 350 kts 97°
2026-05-04 21:32 -14.08476 -172.01303 9833 ft 346 kts 97°
2026-05-04 21:32 -14.08817 -171.98855 9298 ft 344 kts 97°
2026-05-04 21:32 -14.09154 -171.96432 8782 ft 341 kts 97°
2026-05-04 21:32 -14.09490 -171.94026 8256 ft 338 kts 97°
2026-05-04 21:33 -14.09822 -171.91641 7760 ft 335 kts 97°
2026-05-04 21:33 -14.10148 -171.89275 7262 ft 332 kts 97°
2026-05-04 21:33 -14.10471 -171.86929 6770 ft 329 kts 97°
2026-05-04 21:33 -14.10789 -171.84608 6272 ft 326 kts 97°
2026-05-04 21:34 -14.11105 -171.82307 5760 ft 323 kts 97°
2026-05-04 21:34 -14.11419 -171.80045 5510 ft 312 kts 97°
2026-05-04 21:34 -14.11720 -171.77889 5387 ft 298 kts 97°
2026-05-04 21:34 -14.12005 -171.75822 5263 ft 286 kts 97°
2026-05-04 21:35 -14.12283 -171.73806 5139 ft 283 kts 97°
2026-05-04 21:35 -14.12450 -171.71799 5022 ft 281 kts 86°
2026-05-04 21:35 -14.12107 -171.69837 4898 ft 278 kts 70°
2026-05-04 21:35 -14.11276 -171.68055 4783 ft 275 kts 55°
2026-05-04 21:36 -14.10028 -171.66581 4661 ft 273 kts 39°
2026-05-04 21:36 -14.08451 -171.65523 4537 ft 270 kts 23°
2026-05-04 21:36 -14.06668 -171.64956 4414 ft 268 kts
2026-05-04 21:36 -14.04811 -171.64876 4291 ft 268 kts 358°
2026-05-04 21:37 -14.02948 -171.64909 4418 ft 265 kts 358°
2026-05-04 21:37 -14.01126 -171.64939 5430 ft 268 kts 358°
2026-05-04 21:37 -13.99229 -171.64967 5817 ft 275 kts 358°
2026-05-04 21:37 -13.97336 -171.64994 5894 ft 276 kts 358°
2026-05-04 21:38 -13.95425 -171.65020 5781 ft 273 kts 358°
2026-05-04 21:38 -13.93524 -171.65047 5654 ft 273 kts 358°
2026-05-04 21:38 -13.91658 -171.65073 5527 ft 262 kts 358°
2026-05-04 21:38 -13.89864 -171.65096 5402 ft 253 kts 358°
2026-05-04 21:39 -13.88142 -171.65119 5284 ft 243 kts 358°
2026-05-04 21:39 -13.86478 -171.65141 5163 ft 234 kts 358°
2026-05-04 21:39 -13.84911 -171.65195 5038 ft 216 kts 351°
2026-05-04 21:39 -13.83632 -171.65756 4943 ft 189 kts 322°
2026-05-04 21:40 -13.82875 -171.66719 4830 ft 161 kts 297°
2026-05-04 21:40 -13.82612 -171.67790 4711 ft 152 kts 274°
2026-05-04 21:40 -13.82624 -171.68873 4587 ft 151 kts 270°
2026-05-04 21:40 -13.82637 -171.70013 4474 ft 177 kts 270°
2026-05-04 21:41 -13.82648 -171.71382 4353 ft 200 kts 270°
2026-05-04 21:41 -13.82662 -171.72826 4212 ft 203 kts 270°
2026-05-04 21:41 -13.82677 -171.74284 4063 ft 204 kts 270°
2026-05-04 21:41 -13.82696 -171.75742 3925 ft 204 kts 270°
2026-05-04 21:42 -13.82717 -171.77203 3812 ft 204 kts 270°
2026-05-04 21:42 -13.82736 -171.78662 3711 ft 203 kts 270°
2026-05-04 21:42 -13.82753 -171.80114 3600 ft 203 kts 270°
2026-05-04 21:42 -13.82770 -171.81565 3469 ft 203 kts 270°
2026-05-04 21:43 -13.82788 -171.83014 3339 ft 203 kts 270°
2026-05-04 21:43 -13.82806 -171.84437 3103 ft 194 kts 270°
2026-05-04 21:43 -13.82825 -171.85806 2845 ft 189 kts 270°
2026-05-04 21:43 -13.82842 -171.87123 2592 ft 175 kts 270°
2026-05-04 21:44 -13.82857 -171.88283 2341 ft 151 kts 270°
2026-05-04 21:44 -13.82869 -171.89303 2110 ft 136 kts 270°
2026-05-04 21:44 -13.82884 -171.90257 1914 ft 131 kts 270°
2026-05-04 21:44 -13.82909 -171.91190 1741 ft 130 kts 269°
2026-05-04 21:45 -13.82914 -171.92113 1611 ft 129 kts 272°
2026-05-04 21:45 -13.82883 -171.93035 1419 ft 129 kts 270°
2026-05-04 21:45 -13.82886 -171.93643 1249 ft 128 kts 270°
2026-05-04 21:45 -13.82923 -171.94865 987 ft 128 kts 269°
2026-05-04 21:46 -13.82936 -171.95470 829 ft 128 kts 269°
2026-05-04 21:46 -13.82950 -171.96387 594 ft 128 kts 269°
2026-05-04 21:46 -13.82967 -171.97310 424 ft 130 kts 269°
2026-05-04 21:46 -13.82979 -171.98242 242 ft 131 kts 270°
2026-05-04 21:47 -13.82979 -171.99176 67 ft 130 kts 270°
2026-05-04 21:47 -13.82993 -172.00086 -4 ft 118 kts 269°
2026-05-04 21:47 -13.83003 -172.00506 1 ft 24 kts 268°
2026-05-04 21:47 -13.83016 -172.00641 3 ft 12 kts 290°
2026-05-04 21:48 -13.83000 -172.00644 4 ft 1 kts 77°
2026-05-04 21:48 -13.82999 -172.00613 5 ft 7 kts 89°
2026-05-04 21:48 -13.82998 -172.00549 5 ft 11 kts 89°
2026-05-04 21:48 -13.82996 -172.00452 1 ft 16 kts 89°
2026-05-04 21:49 -13.82994 -172.00318 -3 ft 21 kts 89°
2026-05-04 21:49 -13.82993 -172.00151 -5 ft 25 kts 90°
2026-05-04 21:49 -13.82992 -171.99956 -9 ft 30 kts 90°
2026-05-04 21:49 -13.82997 -171.99768 -12 ft 15 kts 110°
2026-05-04 21:50 -13.83098 -171.99738 -12 ft 11 kts 177°
2026-05-04 21:50 -13.83160 -171.99716 -12 ft 9 kts 146°
2026-05-04 21:50 -13.83166 -171.99712 -12 ft 0 kts 146°